Tracking 27380 objects as of 5-Jun-2023
HD Live streaming from Space Station
objects crossing your sky now

STARLINK-3941

Track STARLINK-3941 now!
10-day predictions
STARLINK-3941 is classified as:


NORAD ID: 52638
Int'l Code: 2022-052AS
Perigee: 546.0 km
Apogee: 547.7 km
Inclination: 53.2 °
Period: 95.4 minutes
Semi major axis: 6917 km
RCS: Unknown
Launch date: May 14, 2022
Source: United States (US)
Launch site: AIR FORCE EASTERN TEST RANGE (AFETR)
Your satellite tracking list
Your tracking list is empty




NASA's NSSDC Master Catalog

Two Line Element Set (TLE):
1 52638U 22052AS  23156.26203432  .00001087  00000-0  86384-4 0  9993
2 52638  53.2168 116.1269 0001241 100.4076 259.7056 15.08839517 59569
Source of the keplerian elements: AFSPC